Location: Ellingshausen
(50.5460°N, 10.4723°E)
Time: 00:02:01
(UTC+00:00)

NOSS 2-2 (C) - Pass Details

Date: 18 January 2026
Orbit: 379 x 1692 km, 63.3° (Epoch: 17 February)

Event Time Altitude Azimuth Distance (km) Brightness Sun altitude
Rises 06:19:45 0° 223° (SW) 2,490 6.5 -8.0°
Reaches altitude 10° 06:21:59 10° 223° (SW) 1,515 5.4 -7.6°
Maximum altitude 06:25:12 89° 311° (NW) 395 2.6 -7.2°
Drops below altitude 10° 06:28:11 10° 44° (NE) 1,405 5.7 -6.7°
Sets 06:30:11 0° 44° (NE) 2,286 6.8 -6.5°
